Change the Weather History Date:

Tuesday, May 28, 2013

  Actual Average Record
Temperature  
Mean Temperature 55 °F 60 °F  
Max Temperature 74 °F 72 °F 94 °F (1978)
Min Temperature 35 °F 47 °F 29 °F (1980)
Degree Days  
Heating Degree Days 10 7  
Month to date heating degree days 262 286  
Since 1 July heating degree days 6764 7133  
Cooling Degree Days 0 1  
Month to date cooling degree days 3 11  
Year to date cooling degree days 3 13  
Growing Degree Days 4 (Base 50)    
Moisture  
Dew Point 38 °F    
Average Humidity 64    
Maximum Humidity 100    
Minimum Humidity 27    
Precipitation  
Precipitation 0.00 in 0.12 in 1.84 in (1906)
Month to date precipitation 3.87 3.28  
Year to date precipitation 12.56 15.28  
Snow  
Snow 0.00 in 0.00 in 0.00 in (2002)
Month to date snowfall 0.0 0.2  
Since 1 July snowfall 83.4 61.6  
Snow Depth 0.00 in    
Sea Level Pressure  
Sea Level Pressure 30.21 in    
Wind  
Wind Speed 3 mph (SSE)    
Max Wind Speed 12 mph    
Max Gust Speed 18 mph    
Visibility 10 miles    
Events      
T = Trace of Precipitation, MM = Missing Value Source: NWS Daily Summary

Daily Weather History Graph

Daily Weather History Graph

Search for Another Location

Airport or City:

Trip Planner

Search our weather history database for the weather conditions in past years. The results will help you decide how hot, cold, wet, or windy it might be!

Date:

Astronomy

May. 28, 2013 Rise Set
Actual Time 5:11 AM EDT 8:16 PM EDT
Civil Twilight 4:36 AM EDT 8:50 PM EDT
Nautical Twilight 3:52 AM EDT 9:34 PM EDT
Astronomical Twilight 3:00 AM EDT 10:27 PM EDT
Moon 11:33 PM EDT (5/28) 8:58 AM EDT (5/28)
Length of Visible Light 16h 13m
Length of Day
15h 05m
Waning Gibbous, 83% of the Moon is Illuminated
May 28
Waning Gibbous
May 31
Last Quarter
Jun 8
New
Jun 16
First Quarter
Jun 23
Full

Hourly Weather History & Observations

Time (EDT) Temp. Windchill Dew Point Humidity Pressure Visibility Wind Dir Wind Speed Gust Speed Precip Events Conditions
12:51 AM 41.0 °F - 39.0 °F 93% 30.21 in 10.0 mi Calm Calm - N/A   Clear
1:51 AM 41.0 °F - 39.0 °F 93% 30.22 in 10.0 mi Calm Calm - N/A   Clear
2:51 AM 37.9 °F - 37.0 °F 97% 30.22 in 10.0 mi Calm Calm - N/A   Clear
3:51 AM 36.0 °F - 35.1 °F 97% 30.22 in 10.0 mi Calm Calm - N/A   Clear
4:51 AM 37.9 °F - 37.0 °F 97% 30.23 in 10.0 mi Calm Calm - N/A   Clear
5:51 AM 36.0 °F - 36.0 °F 100% 30.25 in 10.0 mi Calm Calm - N/A   Clear
6:51 AM 42.1 °F 39.2 °F 39.0 °F 89% 30.26 in 10.0 mi NNW 4.6 mph - N/A   Clear
7:51 AM 48.0 °F - 41.0 °F 77% 30.26 in 10.0 mi Calm Calm - N/A   Clear
8:51 AM 55.0 °F - 42.1 °F 62% 30.25 in 10.0 mi Calm Calm - N/A   Clear
9:51 AM 62.1 °F - 39.9 °F 44% 30.25 in 10.0 mi Calm Calm - N/A   Clear
10:51 AM 66.9 °F - 34.0 °F 30% 30.24 in 10.0 mi South 5.8 mph - N/A   Clear
11:51 AM 70.0 °F - 35.1 °F 28% 30.24 in 10.0 mi South 8.1 mph - N/A   Clear
12:51 PM 70.0 °F - 37.0 °F 30% 30.22 in 10.0 mi South 9.2 mph - N/A   Clear
1:51 PM 72.0 °F - 37.0 °F 28% 30.20 in 10.0 mi SSE 8.1 mph - N/A   Clear
2:51 PM 71.1 °F - 36.0 °F 28% 30.19 in 10.0 mi SSW 3.5 mph - N/A   Clear
3:51 PM 73.0 °F - 37.9 °F 28% 30.17 in 10.0 mi SE 10.4 mph - N/A   Clear
4:51 PM 72.0 °F - 37.9 °F 29% 30.17 in 10.0 mi SSE 6.9 mph - N/A   Clear
5:51 PM 69.1 °F - 39.9 °F 35% 30.16 in 10.0 mi ESE 10.4 mph - N/A   Clear
6:51 PM 64.9 °F - 37.9 °F 37% 30.17 in 10.0 mi ESE 5.8 mph - N/A   Clear
7:51 PM 61.0 °F - 39.0 °F 44% 30.17 in 10.0 mi East 3.5 mph - N/A   Clear
8:51 PM 57.9 °F - 39.0 °F 49% 30.17 in 10.0 mi East 4.6 mph - N/A   Clear
9:51 PM 55.0 °F - 41.0 °F 59% 30.19 in 10.0 mi Calm Calm - N/A   Clear
10:51 PM 53.1 °F - 42.1 °F 66% 30.19 in 10.0 mi Calm Calm - N/A   Clear
11:51 PM 50.0 °F - 44.1 °F 80% 30.19 in 10.0 mi Calm Calm - N/A   Clear